Flag for U.S.A. Weather past 2 weeks in Lexington, Virginia, U.S.A.

Now
56 °F

Partly cloudy.


Feels Like: 55 °F
Forecast: 57 / 76 °F
Wind: 6 mph from West

Location: Hot Springs / Ingalls

Current Time: Oct 1, 2014 at 5:15:00 AM

Latest Report: Oct 1, 2014 at 4:35 AM


Visibility: 10 mi

Pressure: 30.05 "Hg

Humidity: 50%

Dew point: 38 °F

Location of LexingtonLocation

Historic Weather in Lexington — Graph

°F

Lexington temperature yesterday

Maximum temperature yesterday: 69 °F (at 3:55 PM)
Minimum temperature yesterday: 53 °F (at 12:15 AM)
Average temperature yesterday: 60 °F

Past Weeks' High & Low Weather Summary

 TemperatureHumidityPressure
High69 °F (Sep 30, 3:55 PM)94% (Sep 16, 8:55 AM)30.48 "Hg (Sep 16, 8:55 AM)
Low42 °F (Sep 23, 12:55 AM)19% (Sep 30, 5:15 PM)29.89 "Hg (Sep 21, 5:15 PM)
Average55 °F61%30.22 "Hg
* Reported Sep 16 4:15 AM — Oct 1 4:15 AM, Lexington, Weather by CustomWeather, © 2014

Note: Actual official high and low records may vary slightly from our data, if they occured in-between our weather recording intervals... More about our weather records

Advertising

Lexington weather history for previous 24 hours

 ConditionsComfort  
Time TempWeatherWind HumidityBarometerVisibility
4:15 AM
Oct 1
56 °FPassing clouds.7 mph51%30.05 "Hg10 mi
3:55 AM54 °FPassing clouds.6 mph53%30.04 "Hg10 mi
3:35 AM56 °FPassing clouds.7 mph50%30.05 "Hg10 mi
3:15 AM56 °FPassing clouds.7 mph49%30.04 "Hg10 mi
2:55 AM56 °FPassing clouds.8 mph50%30.05 "Hg10 mi
2:35 AM58 °FPartly cloudy.7 mph47%30.05 "Hg10 mi
2:15 AM58 °FMostly cloudy.3 mph46%30.05 "Hg7 mi
1:55 AM58 °FMostly cloudy.6 mph47%30.05 "Hg10 mi
1:35 AM57 °FMostly cloudy.7 mph48%30.05 "Hg10 mi
1:15 AM56 °FMostly cloudy.6 mph48%30.05 "Hg10 mi
12:55 AM57 °FMostly cloudy.3 mph46%30.05 "Hg10 mi
12:15 AM58 °FMostly cloudy.3 mph44%30.05 "Hg10 mi
11:55 PM
Sep 30
59 °FMostly cloudy.3 mph43%30.05 "Hg10 mi
11:35 PM58 °FPassing clouds.No wind42%30.05 "Hg10 mi
11:15 PM59 °FPartly cloudy.5 mph41%30.05 "Hg10 mi
10:55 PM59 °FOvercast.7 mph40%30.05 "Hg10 mi
10:35 PM59 °FPassing clouds.6 mph39%30.05 "Hg10 mi
10:15 PM60 °FClear.8 mph37%30.04 "Hg10 mi
9:55 PM59 °FClear.9 mph37%30.04 "Hg10 mi
9:35 PM60 °FClear.9 mph36%30.03 "Hg10 mi
9:15 PM61 °FClear.8 mph34%30.03 "Hg10 mi
8:55 PM60 °FClear.10 mph34%30.03 "Hg10 mi
8:35 PM60 °FClear.10 mph35%30.02 "Hg10 mi
8:15 PM61 °FClear.8 mph32%30.02 "Hg10 mi
7:55 PM61 °FSunny.9 mph30%30.02 "Hg10 mi
7:30 PM62 °FSunny.8 mph29%30.01 "Hg10 mi
6:55 PM62 °FSunny.8 mph29%30.00 "Hg10 mi
6:35 PM64 °FSunny.6 mph26%30.00 "Hg10 mi
6:15 PM65 °FScattered clouds.7 mph24%29.99 "Hg10 mi
5:55 PM67 °FScattered clouds.6 mph23%29.99 "Hg10 mi
5:35 PM67 °FSunny.10 mph21%29.99 "Hg7 mi
5:15 PM68 °FSunny.8 mph19%29.99 "Hg7 mi
4:55 PM68 °FSunny.9 mph21%29.99 "Hg10 mi
4:35 PM66 °FSunny.10 mph22%29.99 "Hg7 mi
4:15 PM68 °FSunny.9 mph22%29.99 "Hg7 mi
3:55 PM69 °FSunny.8 mph22%29.99 "Hg10 mi
3:15 PM69 °FPartly sunny.No wind23%30.00 "Hg10 mi
2:55 PM67 °FScattered clouds.3 mph28%30.00 "Hg10 mi
2:30 PM68 °FScattered clouds.6 mph29%30.01 "Hg10 mi
2:10 PM66 °FScattered clouds.6 mph34%30.02 "Hg10 mi
1:50 PM66 °FScattered clouds.6 mph34%30.02 "Hg10 mi
1:35 PM66 °FSunny.5 mph37%30.03 "Hg10 mi
12:55 PM66 °FScattered clouds.9 mph39%30.04 "Hg10 mi
12:30 PM65 °FSunny.8 mph40%30.04 "Hg10 mi
12:10 PM64 °FSunny.8 mph42%30.05 "Hg10 mi
11:55 AM64 °FSunny.7 mph47%30.05 "Hg10 mi
11:35 AM63 °FSunny.8 mph49%30.05 "Hg10 mi
11:15 AM62 °FSunny.7 mph52%30.05 "Hg10 mi
10:55 AM62 °FSunny.6 mph50%30.05 "Hg10 mi
10:35 AM62 °FSunny.5 mph50%30.05 "Hg10 mi
10:15 AM62 °FSunny.5 mph49%30.05 "Hg10 mi
9:55 AM60 °FSunny.3 mph60%30.05 "Hg10 mi
9:35 AM58 °FSunny.3 mph69%30.05 "Hg10 mi
9:15 AM58 °FSunny.5 mph72%30.05 "Hg10 mi
8:55 AM57 °FSunny.5 mph73%30.05 "Hg10 mi
8:35 AM56 °FSunny.7 mph86%30.05 "Hg10 mi
8:15 AM56 °FSunny.7 mph86%30.05 "Hg10 mi
7:55 AM55 °FClear.7 mph85%30.05 "Hg7 mi
7:30 AM54 °FClear.8 mph86%30.04 "Hg7 mi
7:15 AM54 °FClear.8 mph86%30.04 "Hg7 mi
6:55 AM54 °FClear.7 mph85%30.03 "Hg10 mi
6:15 AM54 °FClear.9 mph85%30.03 "Hg10 mi
5:55 AM55 °FClear.8 mph84%30.03 "Hg10 mi
5:35 AM55 °FClear.6 mph82%30.03 "Hg10 mi
5:15 AM55 °FClear.8 mph82%30.03 "Hg10 mi
Weather by CustomWeather, © 2014

See weather overviewHow to use our weather pages